Location: Sevilla
(37.3933°N, 5.9839°W)
Time: 05:04:14
(UTC+02:00)

Transit 2A - Pass Details

Date: 01 July 2024
Orbit: 591 x 960 km, 66.7° (Epoch: 15 July)

Event Time Altitude Azimuth Distance (km) Brightness Sun altitude
Rises 00:45:46 0° 330° (NNW) 3,591 10.9 -24.9°
Reaches altitude 10° 00:48:17 10° 328° (NNW) 2,669 9.8 -25.1°
Maximum altitude 00:54:35 74° 245° (WSW) 997 6.4 -25.7°
Enters shadow 00:55:41 60° 185° (S) 1,089 6.4 -25.7°
Drops below altitude 10° 01:00:51 10° 161° (SSE) 2,659 - -26.1°
Sets 01:03:22 0° 160° (SSE) 3,576 - -26.3°
